Weather History for Mountain Home, ID

Change the Weather History Date:

Saturday, July 20, 2013

  Actual Average Record
Temperature  
Mean Temperature 83 °F 77 °F  
Max Temperature 103 °F 94 °F 108 °F (2003)
Min Temperature 63 °F 59 °F 41 °F (1927)
Cooling Degree Days 18 12  
Month to date cooling degree days 298 201  
Growing Degree Days 32 (Base 50)    
Moisture  
Dew Point 32 °F    
Average Humidity 18    
Maximum Humidity 36    
Minimum Humidity 7    
Precipitation  
Precipitation 0.00 in 0.00 in 0.26 in (1914)
Month to date precipitation T 0.14  
Sea Level Pressure  
Sea Level Pressure 29.79 in    
Wind  
Wind Speed 9 mph (NW)    
Max Wind Speed 21 mph    
Max Gust Speed 28 mph    
Visibility 10 miles    
Events      
T = Trace of Precipitation, MM = Missing Value Source: NWS Daily Summary

Daily Weather History Graph

Daily Weather History Graph

Search for Another Location

Airport:

Trip Planner

Search our weather history database for the weather conditions in past years. The results will help you decide how hot, cold, wet, or windy it might be!

Date:

Astronomy

Jul. 20, 2013 Rise Set
Actual Time 6:22 AM MDT 9:16 PM MDT
Civil Twilight 5:48 AM MDT 9:50 PM MDT
Nautical Twilight 5:06 AM MDT 10:32 PM MDT
Astronomical Twilight 4:16 AM MDT 11:22 PM MDT
Moon 7:23 PM MDT (7/20) 4:07 AM MDT (7/20)
Length of Visible Light 16h 01m
Length of Day
14h 54m
Waxing Gibbous, 94% of the Moon is Illuminated
Jul 20
Waxing Gibbous
Jul 22
Full
Jul 29
Last Quarter
Aug 6
New
Aug 14
First Quarter

Hourly Weather History & Observations

Time (MDT) Temp. Dew Point Humidity Pressure Visibility Wind Dir Wind Speed Gust Speed Precip Events Conditions
12:58 AM 76.1 °F 31.5 °F 20% 29.81 in 10.0 mi NW 8.1 mph - N/A   Clear
1:58 AM 73.9 °F 33.6 °F 23% 29.81 in 10.0 mi NNW 9.2 mph - N/A   Clear
2:58 AM 67.3 °F 35.1 °F 30% 29.92 in 10.0 mi NW 2.3 mph - N/A   Clear
3:58 AM 63.1 °F 35.4 °F 36% 29.83 in 10.0 mi WSW 3.5 mph - N/A   Clear
4:58 AM 64.8 °F 36.3 °F 35% 29.83 in 10.0 mi West 8.1 mph - N/A   Clear
5:58 AM 66.7 °F 35.4 °F 31% 29.83 in 10.0 mi WNW 8.1 mph - N/A   Clear
6:58 AM 66.4 °F 35.2 °F 32% 29.84 in 10.0 mi WNW 8.1 mph - N/A   Clear
7:58 AM 72.9 °F 37.8 °F 28% 29.85 in 10.0 mi NW 10.4 mph - N/A   Clear
8:58 AM 79.3 °F 39.4 °F 24% 29.86 in 10.0 mi WNW 11.5 mph - N/A   Clear
9:58 AM 83.7 °F 38.8 °F 20% 29.86 in 10.0 mi NW 8.1 mph - N/A   Clear
10:58 AM 84.9 °F 39.7 °F 20% 29.86 in 10.0 mi NE 8.1 mph - N/A   Clear
11:58 AM 89.1 °F 37.6 °F 16% 29.84 in 10.0 mi East 4.6 mph - N/A   Clear
12:58 PM 95.0 °F 33.4 °F 11% 29.82 in 10.0 mi WNW 6.9 mph 18.4 mph N/A   Clear
1:58 PM 97.9 °F 30.7 °F 9% 29.80 in 10.0 mi West 11.5 mph - N/A   Clear
2:58 PM 99.0 °F 30.4 °F 9% 29.79 in 10.0 mi WNW 12.7 mph 17.3 mph N/A   Clear
3:58 PM 100.4 °F 29.7 °F 8% 29.77 in 10.0 mi NNW 13.8 mph 18.4 mph N/A   Clear
4:09 PM 100.4 °F 30.2 °F 9% 29.85 in 10.0 mi WNW 17.3 mph - N/A   Clear
4:58 PM 101.5 °F 28.6 °F 8% 29.73 in 10.0 mi WNW 13.8 mph 23.0 mph N/A   Clear
5:58 PM 101.7 °F 25.9 °F 7% 29.71 in 10.0 mi NW 19.6 mph 27.6 mph N/A   Clear
6:58 PM 100.6 °F 24.3 °F 7% 29.70 in 10.0 mi NNW 19.6 mph 27.6 mph N/A   Clear
7:58 PM 98.4 °F 25.0 °F 7% 29.69 in 10.0 mi NNW 20.7 mph - N/A   Clear
8:58 PM 94.8 °F 25.3 °F 8% 29.69 in 10.0 mi NNW 10.4 mph - N/A   Clear
9:58 PM 84.4 °F 26.6 °F 12% 29.71 in 10.0 mi West 10.4 mph - N/A   Clear
10:58 PM 80.2 °F 27.3 °F 14% 29.73 in 10.0 mi WNW 10.4 mph - N/A   Clear
11:58 PM 75.6 °F 29.3 °F 18% 29.74 in 10.0 mi WNW 9.2 mph - N/A   Clear